2023/02/01 00:00:00,59.8, 0.3
2023/02/01 00:10:00,59.8, 0.6
2023/02/01 00:20:00,59.8, 0.4
2023/02/01 00:30:00,59.7, 0.4
2023/02/01 00:40:00,59.6, 0.8
2023/02/01 00:50:00,59.5, 0.5
2023/02/01 01:00:00,59.5, 0.7
2023/02/01 01:10:00,59.5, 0.6
2023/02/01 01:20:00,59.4, 0.5
2023/02/01 01:30:00,59.4, 0.5
2023/02/01 01:40:00,59.4, 0.4
2023/02/01 01:50:00,59.4, 0.3
2023/02/01 02:00:00,59.4, 0.5
2023/02/01 02:10:00,59.4, 0.1
2023/02/01 02:20:00,59.3, 0.2
2023/02/01 02:30:00,59.2, 0.4
2023/02/01 02:40:00,59.1, 0.5
2023/02/01 02:50:00,59.1, 0.5
2023/02/01 03:00:00,59.1, 0.3
2023/02/01 03:10:00,59.1, 0.7
2023/02/01 03:20:00,59.1, 0.6
2023/02/01 03:30:00,59.1, 0.9
2023/02/01 03:40:00,59.0, 0.6
2023/02/01 03:50:00,59.0, 0.4
2023/02/01 04:00:00,59.0, 0.4
2023/02/01 04:10:00,59.0, 0.3
2023/02/01 04:20:00,59.0, 0.5
2023/02/01 04:30:00,58.9, 0.6
2023/02/01 04:40:00,58.9, 0.6
2023/02/01 04:50:00,58.9, 0.8
2023/02/01 05:00:00,58.8, 0.7
2023/02/01 05:10:00,58.8, 0.6
2023/02/01 05:20:00,58.7, 0.5
2023/02/01 05:30:00,58.6, 0.8
2023/02/01 05:40:00,58.6, 0.6
2023/02/01 05:50:00,58.5, 0.7
2023/02/01 06:00:00,58.5, 0.8
2023/02/01 06:10:00,58.5, 1.4
2023/02/01 06:20:00,58.6, 1.1
2023/02/01 06:30:00,58.6, 1.2
2023/02/01 06:40:00,58.6, 1.2
2023/02/01 06:50:00,58.6, 1.4
2023/02/01 07:00:00,58.5, 1.4
2023/02/01 07:10:00,58.5, 1.5
2023/02/01 07:20:00,58.4, 1.3
2023/02/01 07:30:00,58.4, 1.8
2023/02/01 07:40:00,58.4, 1.7
2023/02/01 07:50:00,58.4, 1.8
2023/02/01 08:00:00,58.4, 1.9
2023/02/01 08:10:00,58.3, 1.8
                              2023/02/01 08:30:00,34.8, 2.2
2023/02/01 08:40:00,58.0, 2.4
2023/02/01 08:50:00,57.8, 2.3
2023/02/01 09:00:00,57.7, 2.7
2023/02/01 09:10:00,57.6, 3.1
2023/02/01 09:20:00,57.5, 3.0
2023/02/01 09:30:00,57.4, 3.4
2023/02/01 09:40:00,57.5, 3.9
2023/02/01 09:50:00,57.4, 3.4
2023/02/01 10:00:00,57.4, 4.0
2023/02/01 10:10:00,57.5, 3.9
2023/02/01 10:20:00,57.6, 4.3
2023/02/01 10:30:00,57.4, 4.1
2023/02/01 10:40:00,57.4, 4.3
2023/02/01 10:50:00,57.3, 4.1
2023/02/01 11:00:00,57.3, 4.2
2023/02/01 11:10:00,56.9, 3.9
2023/02/01 11:20:00,57.0, 3.7
2023/02/01 11:30:00,57.0, 3.9
2023/02/01 11:40:00,56.8, 3.3
2023/02/01 11:50:00,56.6, 3.4
2023/02/01 12:00:00,56.5, 3.4
2023/02/01 12:10:00,56.5, 3.8
2023/02/01 12:20:00,56.2, 4.1
2023/02/01 12:30:00,56.0, 4.0
2023/02/01 12:40:00,55.8, 3.8
2023/02/01 12:50:00,55.8, 3.6
2023/02/01 13:00:00,55.6, 4.2
2023/02/01 13:10:00,55.6, 4.0
2023/02/01 13:20:00,55.4, 4.0
2023/02/01 13:30:00,55.2, 3.9
2023/02/01 13:40:00,55.0, 3.9
2023/02/01 13:50:00,54.9, 3.9
2023/02/01 14:00:00,54.8, 4.3
2023/02/01 14:10:00,54.6, 4.7
2023/02/01 14:20:00,54.4, 4.1
2023/02/01 14:30:00,54.2, 3.9
2023/02/01 14:40:00,54.1, 3.9
2023/02/01 14:50:00,53.9, 3.7
2023/02/01 15:00:00,53.9, 3.7
2023/02/01 15:10:00,53.7, 3.5
2023/02/01 15:20:00,53.6, 3.5
2023/02/01 15:30:00,53.2, 3.3
2023/02/01 15:40:00,53.1, 3.3
2023/02/01 15:50:00,53.1, 3.3
2023/02/01 16:00:00,53.2, 3.0
2023/02/01 16:10:00,53.2, 3.5
2023/02/01 16:20:00,53.0, 3.3
2023/02/01 16:30:00,52.8, 3.3
2023/02/01 16:40:00,53.1, 3.2
2023/02/01 16:50:00,53.4, 3.1
2023/02/01 17:00:00,53.3, 3.1
2023/02/01 17:10:00,52.5, 3.1
2023/02/01 17:20:00,52.6, 3.3
2023/02/01 17:30:00,52.5, 2.7
2023/02/01 17:40:00,52.2, 2.3
2023/02/01 17:50:00,52.1, 2.6
2023/02/01 18:00:00,51.8, 2.6
2023/02/01 18:10:00,51.8, 2.4
2023/02/01 18:20:00,52.0, 2.3
2023/02/01 18:30:00,52.0, 2.4
2023/02/01 18:40:00,52.0, 2.4
2023/02/01 18:50:00,51.9, 2.6
2023/02/01 19:00:00,51.8, 2.8
2023/02/01 19:10:00,51.6, 2.5
2023/02/01 19:20:00,51.6, 2.4
2023/02/01 19:30:00,51.8, 2.5
2023/02/01 19:40:00,51.7, 2.5
2023/02/01 19:50:00,51.5, 2.6
2023/02/01 20:00:00,51.5, 2.6
2023/02/01 20:10:00,51.5, 2.5
2023/02/01 20:20:00,51.4, 2.5
2023/02/01 20:30:00,51.3, 2.6
2023/02/01 20:40:00,51.3, 2.3
2023/02/01 20:50:00,51.2, 2.2
2023/02/01 21:00:00,51.1, 2.2
2023/02/01 21:10:00,51.0, 2.2
2023/02/01 21:20:00,50.9, 2.1
2023/02/01 21:30:00,50.9, 2.3
2023/02/01 21:40:00,50.7, 2.1
2023/02/01 21:50:00,50.6, 1.8
2023/02/01 22:00:00,50.5, 1.6
2023/02/01 22:10:00,50.3, 1.7
2023/02/01 22:20:00,50.3, 1.6
2023/02/01 22:30:00,50.3, 1.5
2023/02/01 22:40:00,50.1, 1.3
2023/02/01 22:50:00,50.1, 1.1
2023/02/01 23:00:00,50.0, 1.1
2023/02/01 23:10:00,50.0, 1.2
2023/02/01 23:20:00,49.7, 1.0
2023/02/01 23:30:00,49.6, 0.9
2023/02/01 23:40:00,49.7, 0.9
2023/02/01 23:50:00,49.6, 0.9
